Preview of NWS' New Version of Forecast
This preview is not operational and should not be used for support decisions.

Regional Weather Roundup (RWR)

Issued by National Weather Service (NWS)

                            
000
ASUS44 KJAN 170310
RWRMS 

MISSISSIPPI HOURLY WEATHER ROUNDUP
NATIONAL WEATHER SERVICE JACKSON MS
900 PM CST SAT FEB 16 2019

NOTE: "FAIR: INDICATES FEW OR NO CLOUDS BELOW 12,000 FEET WITH NO
SIGNIFICANT WEATHER AND/OR OBSTRUCTIONS TO VISIBILITY.

MSZ001>002-007>008-010>013-018>021-025>028-034>036-170400-
NORTHWEST MISSISSIPPI
  
CITY           SKY/WX    TMP DP  RH WIND       PRES   REMARKS
BATESVILLE     CLOUDY    41  37  87 E8        29.80F                  
CLARKSDALE     CLOUDY    43  43 100 E7        29.82R                  
CLEVELAND      CLOUDY    42  42 100 NE5       29.79F                  
GREENWOOD      LGT RAIN  45  41  86 E7        29.78R                  
GREENVILLE     CLOUDY    42  39  89 NE5       29.78F                  
OLIVE BRANCH   CLOUDY    37  37 100 E10       29.80F WCI  30          
OXFORD         CLOUDY    37  36  93 E5        29.84R WCI  34          
TUNICA           N/A     41  36  81 E6        29.81F                  
WINONA         CLOUDY    42  40  93 E3        29.79S                  
$$

MSZ003>006-009-014>017-022>024-029>033-037>039-170400-
NORTHEAST MISSISSIPPI
  
CITY           SKY/WX    TMP DP  RH WIND       PRES   REMARKS
ABERDEEN       DRIZZLE   43  43 100 CALM      29.82F                  
COLUMBUS AFB   CLOUDY    44  41  88 E3        29.81F                  
CORINTH        CLOUDY    39  37  93 E5        29.84R                  
GOLDN TRIANGLE LGT RAIN  44  43  96 E7        29.83F                  
STARKVILLE     CLOUDY    43  41  93 SE5       29.83F                  
TUPELO         LGT RAIN  42  37  82 NE7       29.81F                  
$$

MSZ040-058-170400-
CENTRAL MISSISSIPPI
  
CITY           SKY/WX    TMP DP  RH WIND       PRES   REMARKS
JACKSON INTL   FAIR      50  46  86 SE8       29.77F                  
JACKSON HAWKNS FAIR      50  47  89 SE7       29.77F                  
MADISON        FAIR      46  46 100 CALM      29.77F                  
MERIDIAN KEY   MOCLDY    49  44  83 NE9       29.82S                  
MERIDIAN NAS   LGT RAIN  47  43  86 NE3       29.84F                  
RAYMOND          N/A     50  48  93 SE8       29.76F                  
VICKSBURG VKS  MOCLDY    50  45  81 VRB3      29.75F                  
$$

MSZ059>079-170400-
SOUTH MISSISSIPPI
  
CITY           SKY/WX    TMP DP  RH WIND       PRES   REMARKS
HATTIESBURG    CLOUDY    64  58  80 E6        29.81R                  
LAUREL         CLOUDY    58  52  83 E5        29.82R                  
MCCOMB         CLOUDY    61  53  75 E3        29.77S                  
NATCHEZ        CLOUDY    57  49  74 SE5       29.76S                  
PINE BELT      MOCLDY    61  56  83 E7        29.81R                  
$$

MSZ080>082-170400-
COASTAL MISSISSIPPI
  
CITY           SKY/WX    TMP DP  RH WIND       PRES   REMARKS
BILOXI         CLOUDY    64  64 100 S6        29.80S FOG              
PASCAGOULA     CLOUDY    68  64  87 S5        29.81S                  
GULFPORT       CLOUDY    65  65 100 S5        29.80R FOG              
$$

LAZ007>009-015>016-023>026-170400-
NORTHEAST LOUISIANA
  
CITY           SKY/WX    TMP DP  RH WIND       PRES   REMARKS
BASTROP        CLOUDY    43  42  95 CALM      29.78S                  
TALLULAH/VBURG FAIR      49  44  83 SE5       29.76F                  
VIDALIA        MOCLDY    50  44  80 CALM      29.76R                  
$$